| time (UTC) | temp F | wind direction | speed MPH | gust MPH | rain 1hr in | rain 24hr in | rain mn in | humidity % | barometer mb |
| 20260506073002 | 31 | 317 | 1.0 | 2.0 | 0.00 | 0.00 | 0.00 | 76 | 1012.3 |
| 20260506071607 | 32 | 318 | 0.0 | 2.0 | 0.00 | 0.00 | 0.00 | 77 | 1012.1 |
| 20260506062002 | 35 | 323 | 4.0 | 5.0 | 0.00 | 0.00 | 0.00 | 73 | 1012.0 |
| 20260506061604 | 34 | 319 | 5.0 | 6.0 | 0.00 | 0.00 | 0.00 | 72 | 1012.1 |
| 20260506044603 | 37 | 313 | 5.0 | 8.0 | 0.00 | 0.00 | 0.00 | 65 | 1011.4 |
| 20260506043223 | 38 | 313 | 5.0 | 9.0 | 0.00 | 0.00 | 0.00 | 65 | 1011.3 |
| 20260506043003 | 38 | 313 | 5.0 | 10.0 | 0.00 | 0.00 | 0.00 | 65 | 1011.3 |
| 20260506042148 | 39 | 323 | 7.0 | 14.0 | 0.00 | 0.00 | 0.00 | 63 | 1011.2 |
| 20260506041605 | 39 | 325 | 8.0 | 14.0 | 0.00 | 0.00 | 0.00 | 62 | 1011.2 |
| 20260506041140 | 40 | 320 | 9.0 | 14.0 | 0.00 | 0.00 | 0.00 | 62 | 1011.1 |
| 20260506040152 | 40 | 316 | 7.0 | 13.0 | 0.00 | 0.00 | 0.00 | 62 | 1011.1 |
| 20260506040003 | 39 | 316 | 7.0 | 14.0 | 0.00 | 0.00 | 0.00 | 62 | 1011.2 |
| 20260506035134 | 40 | 322 | 8.0 | 13.0 | 0.00 | 0.00 | 0.00 | 61 | 1011.1 |
| 20260506034615 | 40 | 311 | 8.0 | 12.0 | 0.00 | 0.00 | 0.00 | 60 | 1011.1 |
| 20260506033003 | 40 | 302 | 7.0 | 13.0 | 0.00 | 0.00 | 0.00 | 60 | 1011.0 |
| 20260506033001 | 41 | 304 | 7.0 | 12.0 | 0.00 | 0.00 | 0.00 | 60 | 1011.0 |
| 20260506031503 | 40 | 296 | 6.0 | 11.0 | 0.00 | 0.00 | 0.00 | 60 | 1011.0 |
| 20260506025732 | 42 | 315 | 9.0 | 13.0 | 0.00 | 0.00 | 0.00 | 57 | 1010.8 |
| 20260506024658 | 42 | 311 | 8.0 | 12.0 | 0.00 | 0.00 | 0.00 | 56 | 1010.6 |
| 20260506024508 | 42 | 316 | 9.0 | 13.0 | 0.00 | 0.00 | 0.00 | 56 | 1010.6 |
| 20260506023624 | 43 | 322 | 7.0 | 12.0 | 0.00 | 0.00 | 0.00 | 56 | 1010.4 |
| 20260506023103 | 42 | 311 | 8.0 | 14.0 | 0.00 | 0.00 | 0.00 | 55 | 1010.3 |
| 20260506022606 | 43 | 312 | 9.0 | 14.0 | 0.00 | 0.00 | 0.00 | 54 | 1010.2 |
| 20260506021503 | 43 | 330 | 12.0 | 17.0 | 0.00 | 0.00 | 0.00 | 53 | 1010.1 |
| 20260506020352 | 44 | 310 | 12.0 | 17.0 | 0.00 | 0.00 | 0.00 | 52 | 1009.9 |
| 20260506015331 | 44 | 308 | 13.0 | 17.0 | 0.00 | 0.00 | 0.00 | 51 | 1009.7 |
| 20260506014602 | 44 | 309 | 12.0 | 18.0 | 0.00 | 0.00 | 0.00 | 52 | 1009.6 |
| 20260506013144 | 45 | 319 | 12.0 | 20.0 | 0.00 | 0.00 | 0.00 | 52 | 1009.3 |
| 20260506013002 | 44 | 324 | 12.0 | 21.0 | 0.00 | 0.00 | 0.00 | 51 | 1009.3 |
| 20260506012135 | 46 | 314 | 13.0 | 20.0 | 0.00 | 0.00 | 0.00 | 50 | 1009.2 |
| 20260506011610 | 45 | 316 | 13.0 | 19.0 | 0.00 | 0.00 | 0.00 | 50 | 1009.2 |
| 20260506011101 | 46 | 316 | 12.0 | 22.0 | 0.00 | 0.00 | 0.00 | 50 | 1009.1 |
| 20260506010047 | 47 | 301 | 14.0 | 22.0 | 0.00 | 0.00 | 0.00 | 48 | 1008.9 |
| 20260506010002 | 46 | 309 | 12.0 | 23.0 | 0.00 | 0.00 | 0.00 | 48 | 1009.0 |
| 20260506005108 | 47 | 304 | 14.0 | 21.0 | 0.00 | 0.00 | 0.00 | 48 | 1008.8 |
| 20260506004602 | 47 | 312 | 16.0 | 20.0 | 0.00 | 0.00 | 0.00 | 49 | 1008.8 |
| 20260506004123 | 47 | 297 | 13.0 | 21.0 | 0.00 | 0.00 | 0.00 | 49 | 1008.8 |
| 20260506003106 | 47 | 336 | 14.0 | 21.0 | 0.00 | 0.00 | 0.00 | 48 | 1008.8 |
| 20260506003004 | 47 | 315 | 14.0 | 21.0 | 0.00 | 0.00 | 0.00 | 48 | 1008.8 |
| 20260506002117 | 48 | 330 | 14.0 | 20.0 | 0.00 | 0.00 | 0.00 | 48 | 1008.6 |
| 20260506001602 | 47 | 319 | 16.0 | 21.0 | 0.00 | 0.00 | 0.00 | 47 | 1008.5 |
| 20260506001055 | 48 | 311 | 15.0 | 22.0 | 0.00 | 0.00 | 0.00 | 48 | 1008.4 |
| 20260506000018 | 48 | 303 | 13.0 | 23.0 | 0.00 | 0.00 | 0.00 | 47 | 1008.4 |
| 20260506000002 | 47 | 294 | 17.0 | 23.0 | 0.00 | 0.00 | 0.00 | 47 | 1008.5 |
| 20260505235017 | 48 | 293 | 15.0 | 23.0 | 0.00 | 0.00 | 0.00 | 46 | 1008.3 |
| 20260505234602 | 47 | 301 | 14.0 | 24.0 | 0.00 | 0.00 | 0.00 | 47 | 1008.4 |
| 20260505234003 | 48 | 314 | 11.0 | 22.0 | 0.00 | 0.00 | 0.00 | 47 | 1008.3 |
| 20260505233002 | 47 | 311 | 13.0 | 20.0 | 0.00 | 0.00 | 0.00 | 47 | 1008.3 |
| 20260505232929 | 48 | 308 | 14.0 | 22.0 | 0.00 | 0.00 | 0.00 | 47 | 1008.3 |
| 20260505231903 | 48 | 305 | 12.0 | 22.0 | 0.00 | 0.00 | 0.00 | 48 | 1008.2 |
| 20260505231603 | 48 | 311 | 13.0 | 18.0 | 0.00 | 0.00 | 0.00 | 46 | 1008.3 |
| 20260505230838 | 48 | 291 | 13.0 | 23.0 | 0.00 | 0.00 | 0.00 | 47 | 1008.3 |
| 20260505230007 | 47 | 321 | 15.0 | 24.0 | 0.00 | 0.00 | 0.00 | 48 | 1008.3 |
| 20260505225801 | 48 | 309 | 16.0 | 23.0 | 0.00 | 0.00 | 0.00 | 46 | 1008.3 |
| 20260505224602 | 48 | 293 | 16.0 | 24.0 | 0.00 | 0.00 | 0.00 | 47 | 1008.2 |
| 20260505223702 | 48 | 309 | 13.0 | 22.0 | 0.00 | 0.00 | 0.00 | 47 | 1008.1 |
| 20260505223003 | 48 | 328 | 12.0 | 20.0 | 0.00 | 0.00 | 0.00 | 46 | 1008.2 |
| 20260505221603 | 48 | 317 | 17.0 | 24.0 | 0.00 | 0.00 | 0.00 | 47 | 1008.1 |
| 20260505221527 | 49 | 314 | 15.0 | 23.0 | 0.00 | 0.00 | 0.00 | 47 | 1008.0 |
| 20260505220547 | 49 | 302 | 16.0 | 28.0 | 0.00 | 0.00 | 0.00 | 45 | 1008.0 |
| 20260505220002 | 48 | 278 | 17.0 | 29.0 | 0.00 | 0.00 | 0.00 | 46 | 1008.1 |
| 20260505215522 | 49 | 314 | 16.0 | 28.0 | 0.00 | 0.00 | 0.00 | 45 | 1008.0 |
| 20260505214603 | 48 | 276 | 16.0 | 25.0 | 0.00 | 0.00 | 0.00 | 45 | 1008.1 |
| 20260505214446 | 49 | 299 | 15.0 | 24.0 | 0.00 | 0.00 | 0.00 | 44 | 1008.1 |
| 20260505213452 | 48 | 309 | 15.0 | 22.0 | 0.00 | 0.00 | 0.00 | 45 | 1008.2 |
| 20260505213003 | 48 | 316 | 15.0 | 23.0 | 0.00 | 0.00 | 0.00 | 46 | 1008.2 |
| 20260505212424 | 49 | 297 | 13.0 | 23.0 | 0.00 | 0.00 | 0.00 | 47 | 1008.2 |
| 20260505211603 | 48 | 302 | 14.0 | 24.0 | 0.00 | 0.00 | 0.00 | 45 | 1008.2 |
| 20260505211347 | 49 | 298 | 16.0 | 23.0 | 0.00 | 0.00 | 0.00 | 46 | 1008.2 |
| 20260505210348 | 49 | 283 | 15.0 | 22.0 | 0.00 | 0.00 | 0.00 | 46 | 1008.3 |
| 20260505210002 | 49 | 283 | 16.0 | 23.0 | 0.00 | 0.00 | 0.00 | 44 | 1008.3 |
| 20260505205409 | 49 | 296 | 15.0 | 22.0 | 0.00 | 0.00 | 0.00 | 45 | 1008.3 |
| 20260505204609 | 48 | 291 | 14.0 | 23.0 | 0.00 | 0.00 | 0.00 | 44 | 1008.3 |
| 20260505204425 | 49 | 309 | 15.0 | 22.0 | 0.00 | 0.00 | 0.00 | 44 | 1008.3 |
| 20260505203444 | 49 | 293 | 13.0 | 22.0 | 0.00 | 0.00 | 0.00 | 45 | 1008.3 |
| 20260505203003 | 47 | 313 | 13.0 | 23.0 | 0.00 | 0.00 | 0.00 | 45 | 1008.5 |
| 20260505202456 | 48 | 303 | 15.0 | 22.0 | 0.00 | 0.00 | 0.00 | 46 | 1008.5 |
| 20260505201603 | 48 | 283 | 14.0 | 20.0 | 0.00 | 0.00 | 0.00 | 47 | 1008.6 |
| 20260505201434 | 48 | 289 | 14.0 | 22.0 | 0.00 | 0.00 | 0.00 | 49 | 1008.5 |
| 20260505200427 | 48 | 279 | 17.0 | 22.0 | 0.00 | 0.00 | 0.00 | 47 | 1008.5 |
| 20260505200005 | 47 | 283 | 17.0 | 23.0 | 0.00 | 0.00 | 0.00 | 48 | 1008.6 |
| 20260505194614 | 47 | 304 | 11.0 | 22.0 | 0.00 | 0.00 | 0.00 | 49 | 1008.6 |
| 20260505193210 | 49 | 316 | 13.0 | 20.0 | 0.00 | 0.00 | 0.00 | 50 | 1008.4 |
| 20260505193003 | 48 | 243 | 16.0 | 21.0 | 0.00 | 0.00 | 0.00 | 49 | 1008.5 |
| 20260505192133 | 48 | 303 | 10.0 | 16.0 | 0.00 | 0.00 | 0.00 | 49 | 1008.5 |
| 20260505191602 | 47 | 259 | 11.0 | 22.0 | 0.00 | 0.00 | 0.00 | 49 | 1008.5 |
| 20260505191152 | 48 | 296 | 14.0 | 21.0 | 0.00 | 0.00 | 0.00 | 50 | 1008.5 |
| 20260505190135 | 48 | 299 | 12.0 | 24.0 | 0.00 | 0.00 | 0.00 | 48 | 1008.5 |
| 20260505190003 | 47 | 306 | 13.0 | 22.0 | 0.00 | 0.00 | 0.00 | 52 | 1008.6 |
| 20260505185134 | 47 | 288 | 14.0 | 24.0 | 0.00 | 0.00 | 0.00 | 49 | 1008.7 |
| 20260505184606 | 47 | 288 | 14.0 | 20.0 | 0.00 | 0.00 | 0.00 | 49 | 1008.7 |
| 20260505183003 | 47 | 269 | 13.0 | 19.0 | 0.00 | 0.00 | 0.00 | 51 | 1008.6 |
| 20260505182000 | 47 | 281 | 15.0 | 23.0 | 0.00 | 0.00 | 0.00 | 50 | 1008.5 |
| 20260505181602 | 47 | 274 | 15.0 | 22.0 | 0.00 | 0.00 | 0.00 | 48 | 1008.6 |
| 20260505180932 | 47 | 288 | 14.0 | 21.0 | 0.00 | 0.00 | 0.00 | 48 | 1008.5 |
| 20260505180002 | 46 | 290 | 13.0 | 21.0 | 0.00 | 0.00 | 0.00 | 47 | 1008.6 |
| 20260505175857 | 47 | 317 | 12.0 | 20.0 | 0.00 | 0.00 | 0.00 | 47 | 1008.5 |
| 20260505174603 | 46 | 308 | 14.0 | 19.0 | 0.00 | 0.00 | 0.00 | 45 | 1008.6 |
| 20260505173707 | 47 | 305 | 13.0 | 22.0 | 0.00 | 0.00 | 0.00 | 46 | 1008.5 |
| 20260505173007 | 46 | 302 | 14.0 | 23.0 | 0.00 | 0.00 | 0.00 | 45 | 1008.6 |
| 20260505172726 | 47 | 287 | 14.0 | 22.0 | 0.00 | 0.00 | 0.00 | 47 | 1008.5 |
| 20260505171734 | 47 | 304 | 11.0 | 20.0 | 0.00 | 0.00 | 0.00 | 44 | 1008.5 |
| 20260505171602 | 46 | 295 | 10.0 | 18.0 | 0.00 | 0.00 | 0.00 | 47 | 1008.6 |
| 20260505170726 | 46 | 273 | 11.0 | 20.0 | 0.00 | 0.00 | 0.00 | 49 | 1008.6 |
| 20260505170002 | 46 | 286 | 9.0 | 16.0 | 0.00 | 0.00 | 0.00 | 48 | 1008.6 |
| 20260505165748 | 46 | 286 | 9.0 | 17.0 | 0.00 | 0.00 | 0.00 | 48 | 1008.6 |
| 20260505164719 | 46 | 307 | 10.0 | 18.0 | 0.00 | 0.00 | 0.00 | 48 | 1008.6 |
| 20260505164606 | 46 | 336 | 9.0 | 19.0 | 0.00 | 0.00 | 0.00 | 51 | 1008.7 |
| 20260505163710 | 45 | 303 | 12.0 | 19.0 | 0.00 | 0.00 | 0.00 | 48 | 1008.5 |
| 20260505163010 | 45 | 295 | 11.0 | 20.0 | 0.00 | 0.00 | 0.00 | 47 | 1008.6 |
| 20260505162649 | 45 | 321 | 11.0 | 19.0 | 0.00 | 0.00 | 0.00 | 46 | 1008.6 |
| 20260505161711 | 46 | 328 | 9.0 | 19.0 | 0.00 | 0.00 | 0.00 | 50 | 1008.6 |
| 20260505161604 | 45 | 323 | 6.0 | 20.0 | 0.00 | 0.00 | 0.00 | 52 | 1008.7 |
| 20260505160732 | 45 | 299 | 11.0 | 20.0 | 0.00 | 0.00 | 0.00 | 47 | 1008.6 |
| 20260505153008 | 44 | 28 | 10.0 | 21.0 | 0.00 | 0.00 | 0.00 | 52 | 1008.6 |
| 20260505152612 | 44 | 340 | 11.0 | 19.0 | 0.00 | 0.00 | 0.00 | 50 | 1008.4 |
| 20260505151627 | 44 | 289 | 12.0 | 19.0 | 0.00 | 0.00 | 0.00 | 50 | 1008.5 |
| 20260505151606 | 43 | 289 | 12.0 | 20.0 | 0.00 | 0.00 | 0.00 | 48 | 1008.6 |
| 20260505150603 | 44 | 285 | 7.0 | 17.0 | 0.00 | 0.00 | 0.00 | 53 | 1008.4 |
| 20260505140306 | 42 | 281 | 7.0 | 12.0 | 0.00 | 0.00 | 0.00 | 54 | 1008.0 |
| 20260505130239 | 40 | 324 | 6.0 | 9.0 | 0.00 | 0.00 | 0.00 | 63 | 1007.6 |
| 20260505124603 | 39 | 302 | 5.0 | 8.0 | 0.00 | 0.00 | 0.00 | 67 | 1007.4 |
| 20260505124155 | 39 | 304 | 4.0 | 8.0 | 0.00 | 0.00 | 0.00 | 69 | 1007.4 |
| 20260505123140 | 39 | 298 | 3.0 | 6.0 | 0.00 | 0.00 | 0.00 | 69 | 1007.2 |
| 20260505123002 | 38 | 302 | 3.0 | 7.0 | 0.00 | 0.00 | 0.00 | 71 | 1007.3 |
| 20260505122105 | 38 | 315 | 1.0 | 4.0 | 0.00 | 0.00 | 0.00 | 71 | 1007.1 |
| 20260505121602 | 37 | 307 | 1.0 | 4.0 | 0.00 | 0.00 | 0.00 | 75 | 1007.0 |
| 20260505121035 | 37 | 328 | 2.0 | 4.0 | 0.00 | 0.00 | 0.00 | 74 | 1006.8 |
| 20260505120046 | 37 | 326 | 2.0 | 4.0 | 0.00 | 0.00 | 0.00 | 75 | 1006.7 |
| 20260505120002 | 36 | 326 | 2.0 | 5.0 | 0.00 | 0.00 | 0.00 | 75 | 1006.6 |
| 20260505114602 | 36 | 318 | 2.0 | 4.0 | 0.00 | 0.00 | 0.00 | 76 | 1006.5 |
| 20260505113835 | 37 | 318 | 1.0 | 3.0 | 0.00 | 0.00 | 0.00 | 75 | 1006.3 |
| 20260505112758 | 36 | 330 | 1.0 | 4.0 | 0.00 | 0.00 | 0.00 | 76 | 1006.0 |
| 20260505111603 | 35 | 330 | 3.0 | 5.0 | 0.00 | 0.00 | 0.00 | 76 | 1005.9 |
| 20260505110621 | 35 | 319 | 3.0 | 4.0 | 0.00 | 0.00 | 0.00 | 77 | 1005.7 |
| 20260505101633 | 36 | 317 | 4.0 | 5.0 | 0.00 | 0.00 | 0.00 | 74 | 1005.4 |
| 20260505101605 | 36 | 317 | 4.0 | 6.0 | 0.00 | 0.00 | 0.00 | 74 | 1005.5 |
| 20260505100653 | 36 | 314 | 4.0 | 7.0 | 0.00 | 0.00 | 0.00 | 74 | 1005.4 |
| 20260505100002 | 36 | 311 | 5.0 | 8.0 | 0.00 | 0.00 | 0.00 | 73 | 1005.3 |
| 20260505095710 | 37 | 314 | 5.0 | 7.0 | 0.00 | 0.00 | 0.00 | 73 | 1005.3 |
| 20260505094707 | 37 | 316 | 5.0 | 7.0 | 0.00 | 0.00 | 0.00 | 72 | 1005.3 |
| 20260505094607 | 36 | 317 | 6.0 | 9.0 | 0.00 | 0.00 | 0.00 | 72 | 1005.4 |
| 20260505093112 | 37 | 325 | 7.0 | 9.0 | 0.00 | 0.00 | 0.00 | 71 | 1005.1 |
| 20260505092506 | 37 | 319 | 6.0 | 9.0 | 0.00 | 0.00 | 0.00 | 71 | 1005.0 |
| 20260505091506 | 37 | 303 | 7.0 | 10.0 | 0.00 | 0.00 | 0.00 | 71 | 1005.0 |
| 20260505090336 | 37 | 304 | 5.0 | 7.0 | 0.00 | 0.00 | 0.00 | 70 | 1004.8 |
| 20260505085306 | 37 | 295 | 4.0 | 6.0 | 0.00 | 0.00 | 0.00 | 72 | 1004.8 |
| 20260505084503 | 37 | 309 | 5.0 | 8.0 | 0.00 | 0.00 | 0.00 | 71 | 1004.6 |
| 20260505084311 | 38 | 313 | 5.0 | 9.0 | 0.00 | 0.00 | 0.00 | 70 | 1004.5 |
| 20260505083241 | 39 | 305 | 6.0 | 9.0 | 0.00 | 0.00 | 0.00 | 69 | 1004.5 |
| 20260505083102 | 38 | 304 | 7.0 | 10.0 | 0.00 | 0.00 | 0.00 | 69 | 1004.6 |
| 20260505082252 | 38 | 302 | 7.0 | 9.0 | 0.00 | 0.00 | 0.00 | 70 | 1004.4 |
| 20260505081504 | 38 | 319 | 8.0 | 10.0 | 0.00 | 0.00 | 0.00 | 70 | 1004.4 |
| 20260505081239 | 38 | 307 | 6.0 | 9.0 | 0.00 | 0.00 | 0.00 | 70 | 1004.3 |